FW9328 Weather Reports


time (UTC)temp
C
wind
direction
speed
KPH
gust
KPH
rain 1hr
cm
rain 24hr
cm
rain mn
cm
humidity
%
barometer
mb
20260906225042 28 269 1.6 6.4 0.00 0.00 0.00 42 1017.2
20260906224558 28 290 1.6 6.4 0.00 0.00 0.00 42 1017.2
20260906224041 28 187 0.0 4.8 0.00 0.00 0.00 42 1017.0
20260906223539 28 191 0.0 4.8 0.00 0.00 0.00 41 1017.1
20260906223054 28 184 1.6 4.8 0.00 0.00 0.00 41 1017.2
20260906222541 28 0 0.0 6.4 0.00 0.00 0.00 40 1017.3
20260906222039 28 198 0.0 6.4 0.00 0.00 0.00 42 1017.3
20260906221604 28 0 1.6 6.4 0.00 0.00 0.00 40 1017.3
20260906221041 29 239 1.6 4.8 0.00 0.00 0.00 39 1017.3
20260906220545 29 275 1.6 8.0 0.00 0.00 0.00 39 1017.2
20260906220057 29 0 1.6 8.0 0.00 0.00 0.00 40 1017.3
20260906215543 29 0 0.0 4.8 0.00 0.00 0.00 39 1017.5
20260906215041 29 26 0.0 4.8 0.00 0.00 0.00 40 1017.4
20260906214555 29 18 0.0 6.4 0.00 0.00 0.00 40 1017.5
20260906214041 29 35 0.0 6.4 0.00 0.00 0.00 41 1017.6
20260906213541 28 5 1.6 6.4 0.00 0.00 0.00 39 1017.7
20260906213055 28 0 1.6 6.4 0.00 0.00 0.00 41 1017.6
20260906212538 28 0 1.6 6.4 0.00 0.00 0.00 40 1017.8
20260906212059 28 298 0.0 4.8 0.00 0.00 0.00 40 1017.8
20260906211554 28 0 0.0 4.8 0.00 0.00 0.00 42 1017.8
20260906211043 28 0 0.0 4.8 0.00 0.00 0.00 43 1017.9
20260906210542 28 0 1.6 6.4 0.00 0.00 0.00 43 1018.1
20260906205542 28 202 1.6 8.0 0.00 0.00 0.00 39 1018.3
20260906205043 28 0 1.6 8.0 0.00 0.00 0.00 39 1018.3
20260906204549 28 203 3.2 8.0 0.00 0.00 0.00 38 1018.2
20260906204042 28 203 0.0 6.4 0.00 0.00 0.00 38 1018.4
20260906203545 28 0 1.6 8.0 0.00 0.00 0.00 38 1018.4
20260906203049 28 236 3.2 8.0 0.00 0.00 0.00 37 1018.5
20260906202542 29 205 0.0 4.8 0.00 0.00 0.00 38 1018.5
20260906202042 29 242 0.0 4.8 0.00 0.00 0.00 38 1018.5
20260906201550 29 0 0.0 4.8 0.00 0.00 0.00 39 1018.6
20260906201042 30 0 1.6 9.7 0.00 0.00 0.00 38 1018.6
20260906200542 30 348 1.6 9.7 0.00 0.00 0.00 38 1018.5
20260906200055 31 102 3.2 11.3 0.00 0.00 0.00 35 1018.4
20260906195543 31 0 3.2 11.3 0.00 0.00 0.00 38 1018.6
20260906195042 31 297 3.2 8.0 0.00 0.00 0.00 36 1018.6
20260906194552 31 0 1.6 8.0 0.00 0.00 0.00 37 1018.6
20260906194043 31 296 1.6 17.7 0.00 0.00 0.00 37 1018.5
20260906193543 31 32 4.8 17.7 0.00 0.00 0.00 36 1018.7
20260906193054 31 57 6.4 17.7 0.00 0.00 0.00 38 1018.8
20260906192542 31 275 4.8 12.9 0.00 0.00 0.00 38 1018.7
20260906192043 30 11 3.2 12.9 0.00 0.00 0.00 39 1018.8
20260906191548 30 40 1.6 14.5 0.00 0.00 0.00 40 1018.9
20260906191043 30 92 1.6 14.5 0.00 0.00 0.00 43 1019.1
20260906190542 30 22 0.0 6.4 0.00 0.00 0.00 44 1019.3
20260906190113 30 0 3.2 16.1 0.00 0.00 0.00 41 1019.2
20260906185542 30 57 4.8 16.1 0.00 0.00 0.00 44 1019.3
20260906185043 29 0 0.0 8.0 0.00 0.00 0.00 44 1019.4
20260906184555 29 279 3.2 8.0 0.00 0.00 0.00 41 1019.5
20260906184043 29 338 1.6 9.7 0.00 0.00 0.00 43 1019.6
20260906183544 28 40 1.6 9.7 0.00 0.00 0.00 42 1019.8
20260906183057 28 79 3.2 9.7 0.00 0.00 0.00 41 1019.8
20260906182542 28 95 0.0 6.4 0.00 0.00 0.00 41 1019.8
20260906182046 27 233 1.6 6.4 0.00 0.00 0.00 40 1019.9
20260906181549 27 0 1.6 6.4 0.00 0.00 0.00 42 1020.1
20260906181042 27 209 1.6 6.4 0.00 0.00 0.00 40 1020.3
20260906180543 27 0 0.0 11.3 0.00 0.00 0.00 39 1020.2
20260906180055 27 37 1.6 11.3 0.00 0.00 0.00 41 1020.3
20260906175543 27 336 0.0 9.7 0.00 0.00 0.00 38 1020.5
20260906175041 27 32 3.2 9.7 0.00 0.00 0.00 39 1020.5
20260906174549 27 51 1.6 9.7 0.00 0.00 0.00 42 1020.7
20260906174043 27 16 3.2 14.5 0.00 0.00 0.00 43 1020.8
20260906173542 27 111 3.2 14.5 0.00 0.00 0.00 43 1021.1
20260906173050 26 46 3.2 9.7 0.00 0.00 0.00 45 1021.0
20260906172544 26 5 1.6 4.8 0.00 0.00 0.00 46 1021.0
20260906172042 26 0 0.0 3.2 0.00 0.00 0.00 45 1021.2
20260906171552 25 0 0.0 4.8 0.00 0.00 0.00 49 1021.2
20260906171042 25 0 0.0 6.4 0.00 0.00 0.00 48 1021.3
20260906170542 25 0 1.6 6.4 0.00 0.00 0.00 46 1021.3
20260906170056 25 84 0.0 6.4 0.00 0.00 0.00 49 1021.4
20260906165543 25 0 1.6 6.4 0.00 0.00 0.00 54 1021.4
20260906165041 24 252 0.0 6.4 0.00 0.00 0.00 56 1021.5
20260906164550 23 0 0.0 9.7 0.00 0.00 0.00 59 1021.6
20260906164042 23 35 3.2 9.7 0.00 0.00 0.00 58 1021.6
20260906163541 23 39 0.0 8.0 0.00 0.00 0.00 58 1021.6
20260906163051 23 73 1.6 8.0 0.00 0.00 0.00 59 1021.6
20260906162543 23 39 3.2 8.0 0.00 0.00 0.00 62 1021.7
20260906162041 22 31 1.6 6.4 0.00 0.00 0.00 61 1021.7
20260906161549 22 0 0.0 1.6 0.00 0.00 0.00 62 1021.6
20260906161043 22 0 0.0 3.2 0.00 0.00 0.00 62 1021.6
20260906160542 22 55 0.0 4.8 0.00 0.00 0.00 62 1021.6
20260906160108 22 55 0.0 6.4 0.00 0.00 0.00 63 1021.6
20260906155543 22 45 3.2 6.4 0.00 0.00 0.00 64 1021.6
20260906155042 22 19 0.0 6.4 0.00 0.00 0.00 66 1021.5
20260906154600 21 0 0.0 8.0 0.00 0.00 0.00 65 1021.5
20260906154042 21 0 1.6 8.0 0.00 0.00 0.00 66 1021.5
20260906153542 21 30 1.6 8.0 0.00 0.00 0.00 67 1021.6
20260906153106 21 36 1.6 8.0 0.00 0.00 0.00 69 1021.6
20260906152542 20 29 0.0 6.4 0.00 0.00 0.00 72 1021.6
20260906152042 20 0 1.6 6.4 0.00 0.00 0.00 71 1021.6
20260906151557 20 80 1.6 6.4 0.00 0.00 0.00 73 1021.7
20260906151042 20 30 0.0 1.6 0.00 0.00 0.00 75 1021.7
20260906150542 19 0 0.0 1.6 0.00 0.00 0.00 75 1021.7
20260906150059 19 0 0.0 4.8 0.00 0.00 0.00 75 1021.8
20260906145543 18 0 0.0 4.8 0.00 0.00 0.00 76 1021.8
20260906145043 18 38 1.6 4.8 0.00 0.00 0.00 76 1021.9
20260906144602 18 0 0.0 0.0 0.00 0.00 0.00 76 1021.8
20260906144041 18 0 0.0 0.0 0.00 0.00 0.00 76 1021.8
20260906143543 18 0 0.0 6.4 0.00 0.00 0.00 76 1021.8
20260906143049 18 0 0.0 6.4 0.00 0.00 0.00 75 1021.9
20260906142541 18 360 0.0 8.0 0.00 0.00 0.00 75 1021.7
20260906142043 18 0 3.2 8.0 0.00 0.00 0.00 76 1021.7
20260906141601 18 360 3.2 8.0 0.00 0.00 0.00 77 1021.7
20260906141043 18 360 1.6 6.4 0.00 0.00 0.00 78 1021.6
20260906140546 17 360 1.6 4.8 0.00 0.00 0.00 78 1021.5
20260906140059 17 360 1.6 4.8 0.00 0.00 0.00 79 1021.6
20260906135542 17 347 0.0 4.8 0.00 0.00 0.00 79 1021.5
20260906135042 17 0 0.0 4.8 0.00 0.00 0.00 79 1021.5
20260906134559 17 0 0.0 4.8 0.00 0.00 0.00 79 1021.4
20260906134043 16 0 0.0 3.2 0.00 0.00 0.00 78 1021.4
20260906133541 16 352 0.0 3.2 0.00 0.00 0.00 76 1021.6
20260906133110 16 0 0.0 0.0 0.00 0.00 0.00 75 1021.6
20260906132542 16 0 0.0 0.0 0.00 0.00 0.00 74 1021.6
20260906132041 16 0 0.0 0.0 0.00 0.00 0.00 74 1021.5
20260906131600 16 0 0.0 0.0 0.00 0.00 0.00 74 1021.6
20260906131041 15 0 0.0 3.2 0.00 0.00 0.00 74 1021.6
20260906130542 15 0 0.0 3.2 0.00 0.00 0.00 73 1021.5
20260906130048 15 0 0.0 1.6 0.00 0.00 0.00 74 1021.6
20260906125542 15 0 0.0 1.6 0.00 0.00 0.00 74 1021.4
20260906125045 15 0 0.0 3.2 0.00 0.00 0.00 74 1021.5
20260906124553 15 0 0.0 3.2 0.00 0.00 0.00 74 1021.5
20260906124042 15 0 0.0 3.2 0.00 0.00 0.00 74 1021.4
20260906123544 15 0 0.0 0.0 0.00 0.00 0.00 75 1021.4
20260906123052 15 0 0.0 0.0 0.00 0.00 0.00 74 1021.3
20260906122542 15 0 0.0 0.0 0.00 0.00 0.00 74 1021.1
20260906122042 15 0 0.0 0.0 0.00 0.00 0.00 74 1021.3
20260906121551 15 0 0.0 0.0 0.00 0.00 0.00 73 1021.4
20260906121041 15 0 0.0 0.0 0.00 0.00 0.00 73 1021.3
20260906120542 15 0 0.0 0.0 0.00 0.00 0.00 74 1021.2
20260906120050 15 0 0.0 0.0 0.00 0.00 0.00 73 1021.1
20260906115542 16 0 0.0 0.0 0.00 0.00 0.00 74 1021.1
20260906115040 16 0 0.0 0.0 0.00 0.00 0.00 73 1021.1
20260906114605 16 0 0.0 0.0 0.00 0.00 0.00 73 1021.2
20260906114041 16 0 0.0 0.0 0.00 0.00 0.00 73 1021.1
20260906113541 16 0 0.0 0.0 0.00 0.00 0.00 72 1021.2
20260906113052 16 0 0.0 0.0 0.00 0.00 0.00 72 1021.1
20260906112542 16 0 0.0 0.0 0.00 0.00 0.00 72 1021.2
20260906112042 16 0 0.0 0.0 0.00 0.00 0.00 72 1021.1
20260906111553 16 0 0.0 0.0 0.00 0.00 0.00 72 1021.0
20260906111041 16 0 0.0 0.0 0.00 0.00 0.00 71 1020.9
20260906110546 16 0 0.0 0.0 0.00 0.00 0.00 71 1020.9
20260906110050 16 0 0.0 0.0 0.00 0.00 0.00 70 1021.0
20260906105541 16 0 0.0 0.0 0.00 0.00 0.00 70 1021.1
20260906105041 16 0 0.0 1.6 0.00 0.00 0.00 69 1021.1
20260906104623 16 0 0.0 3.2 0.00 0.00 0.00 69 1021.1
20260906104042 16 0 0.0 3.2 0.00 0.00 0.00 69 1021.1
20260906103542 16 352 0.0 3.2 0.00 0.00 0.00 69 1021.1
20260906103053 16 0 0.0 3.2 0.00 0.00 0.00 68 1021.1
20260906102542 16 352 0.0 3.2 0.00 0.00 0.00 68 1021.0
20260906102042 16 0 0.0 0.0 0.00 0.00 0.00 68 1021.2
20260906101553 17 0 0.0 0.0 0.00 0.00 0.00 67 1021.1
20260906101041 17 0 0.0 3.2 0.00 0.00 0.00 67 1021.1
20260906100541 17 0 0.0 3.2 0.00 0.00 0.00 66 1021.2
20260906100049 17 0 0.0 3.2 0.00 0.00 0.00 65 1021.1
20260906095541 17 0 0.0 0.0 0.00 0.00 0.00 65 1021.0
20260906095041 17 0 0.0 0.0 0.00 0.00 0.00 64 1021.1
20260906094554 17 0 0.0 3.2 0.00 0.00 0.00 64 1020.9
20260906094042 17 0 0.0 3.2 0.00 0.00 0.00 63 1021.0
20260906093542 18 0 0.0 3.2 0.00 0.00 0.00 62 1020.9
20260906093113 18 0 0.0 0.0 0.00 0.00 0.00 62 1021.0
20260906092542 18 0 0.0 0.0 0.00 0.00 0.00 62 1021.0
20260906092042 18 0 0.0 0.0 0.00 0.00 0.00 61 1020.7
20260906091600 18 0 0.0 0.0 0.00 0.00 0.00 60 1020.8
20260906091042 18 0 0.0 0.0 0.00 0.00 0.00 59 1020.8
20260906090541 18 0 0.0 0.0 0.00 0.00 0.00 60 1020.5
20260906085543 18 0 0.0 4.8 0.00 0.00 0.00 58 1020.4
20260906085047 18 0 0.0 4.8 0.00 0.00 0.00 58 1020.4
20260906084557 18 0 0.0 4.8 0.00 0.00 0.00 57 1020.2
20260906084041 18 0 0.0 3.2 0.00 0.00 0.00 55 1020.2
20260906083543 18 0 0.0 3.2 0.00 0.00 0.00 55 1020.0
20260906083053 19 0 0.0 3.2 0.00 0.00 0.00 55 1020.1
20260906082541 19 0 0.0 3.2 0.00 0.00 0.00 55 1020.1
20260906082041 19 0 0.0 3.2 0.00 0.00 0.00 55 1020.1
20260906081553 19 0 0.0 3.2 0.00 0.00 0.00 55 1020.0
20260906081041 19 0 0.0 3.2 0.00 0.00 0.00 56 1020.0
20260906080542 19 0 0.0 0.0 0.00 0.00 0.00 55 1020.0
20260906080051 19 0 0.0 0.0 0.00 0.00 0.00 55 1020.2
20260906075541 20 0 0.0 0.0 0.00 0.00 0.00 54 1020.3
20260906075041 20 0 0.0 3.2 0.00 0.00 0.00 55 1020.2
20260906074602 20 0 0.0 3.2 0.00 0.00 0.00 54 1020.2
20260906074041 20 0 0.0 1.6 0.00 0.00 0.00 53 1020.2
20260906073541 20 0 0.0 1.6 0.00 0.00 0.00 52 1020.2
20260906073051 20 0 0.0 1.6 0.00 0.00 0.00 52 1020.3
20260906072541 21 0 0.0 0.0 0.00 0.00 0.00 52 1020.3
20260906072040 21 0 0.0 0.0 0.00 0.00 0.00 51 1020.4
20260906071603 21 0 0.0 0.0 0.00 0.00 0.00 50 1020.2
20260906071042 21 0 0.0 0.0 0.00 0.00 0.00 49 1020.3
20260906070541 22 0 0.0 0.0 0.00 0.00 0.00 48 1020.2
20260906070104 22 0 0.0 0.0 0.00 0.00 0.00 47 1020.1
20260906065543 22 0 0.0 0.0 0.00 0.00 0.00 47 1020.0
20260906065043 22 0 0.0 8.0 0.00 0.00 0.00 46 1020.1
20260906064556 22 0 0.0 8.0 0.00 0.00 0.00 45 1020.2
20260906064041 22 360 3.2 8.0 0.00 0.00 0.00 45 1020.2
20260906063541 22 360 0.0 4.8 0.00 0.00 0.00 45 1020.2
20260906063055 22 0 0.0 0.0 0.00 0.00 0.00 44 1020.2
20260906062542 23 0 0.0 3.2 0.00 0.00 0.00 45 1020.3
20260906062042 23 0 0.0 3.2 0.00 0.00 0.00 46 1020.3
20260906061557 23 360 0.0 3.2 0.00 0.00 0.00 47 1020.2
20260906061042 23 0 0.0 8.0 0.00 0.00 0.00 43 1020.1
20260906060542 23 0 0.0 8.0 0.00 0.00 0.00 43 1020.0
20260906055541 23 360 1.6 4.8 0.00 0.00 0.00 42 1020.1
20260906055041 23 0 0.0 0.0 0.00 0.00 0.00 41 1020.3
20260906054608 24 0 0.0 0.0 0.00 0.00 0.00 40 1020.4
20260906054044 24 0 0.0 4.8 0.00 0.00 0.00 40 1020.6
20260906053541 24 0 0.0 4.8 0.00 0.00 0.00 40 1020.8
20260906053100 24 0 0.0 4.8 0.00 0.00 0.00 40 1020.8
20260906052544 24 0 0.0 6.4 0.00 0.00 0.00 40 1020.9
20260906052041 24 360 3.2 6.4 0.00 0.00 0.00 41 1020.9
20260906051551 24 0 1.6 3.2 0.00 0.00 0.00 41 1020.9
20260906051042 25 360 0.0 1.6 0.00 0.00 0.00 40 1020.8
20260906050544 25 0 0.0 3.2 0.00 0.00 0.00 39 1020.6
20260906050120 25 0 0.0 8.0 0.00 0.00 0.00 39 1020.4
20260906045542 25 360 3.2 8.0 0.00 0.00 0.00 39 1020.2
20260906045041 25 360 1.6 8.0 0.00 0.00 0.00 38 1020.2
20260906044556 25 0 0.0 4.8 0.00 0.00 0.00 38 1020.1
20260906044043 25 360 1.6 6.4 0.00 0.00 0.00 39 1020.1
20260906043541 24 0 0.0 6.4 0.00 0.00 0.00 39 1020.1
20260906043056 24 0 0.0 1.6 0.00 0.00 0.00 39 1020.0
20260906042541 24 0 0.0 3.2 0.00 0.00 0.00 38 1019.9
20260906042041 24 0 0.0 3.2 0.00 0.00 0.00 39 1019.8
20260906041553 24 0 0.0 3.2 0.00 0.00 0.00 39 1019.9
20260906041042 24 0 0.0 6.4 0.00 0.00 0.00 40 1019.9
20260906040540 24 0 0.0 8.0 0.00 0.00 0.00 40 1019.9
20260906040055 24 360 1.6 8.0 0.00 0.00 0.00 40 1020.0
20260906035542 24 360 1.6 8.0 0.00 0.00 0.00 39 1019.8
20260906035041 25 360 0.0 3.2 0.00 0.00 0.00 39 1019.7
20260906034557 25 360 0.0 8.0 0.00 0.00 0.00 39 1019.5
20260906034040 25 0 0.0 12.9 0.00 0.00 0.00 38 1019.5
20260906033541 25 360 0.0 12.9 0.00 0.00 0.00 38 1019.3
20260906033106 25 360 3.2 12.9 0.00 0.00 0.00 37 1019.3
20260906032544 26 360 3.2 8.0 0.00 0.00 0.00 36 1019.1
20260906032041 26 360 1.6 12.9 0.00 0.00 0.00 35 1019.1
20260906031602 26 360 1.6 12.9 0.00 0.00 0.00 35 1019.2
20260906031041 26 360 3.2 12.9 0.00 0.00 0.00 35 1019.0
20260906030541 26 360 1.6 9.7 0.00 0.00 0.00 35 1018.8
20260906030049 26 360 0.0 4.8 0.00 0.00 0.00 35 1018.8
20260906025541 26 0 0.0 1.6 0.00 0.00 0.00 35 1018.7
20260906025042 26 0 0.0 1.6 0.00 0.00 0.00 34 1018.6
20260906024607 27 0 0.0 6.4 0.00 0.00 0.00 34 1018.5
20260906024041 27 0 0.0 6.4 0.00 0.00 0.00 33 1018.5
20260906023541 27 360 0.0 8.0 0.00 0.00 0.00 33 1018.6
20260906023057 27 0 0.0 8.0 0.00 0.00 0.00 32 1018.4
20260906022543 27 360 1.6 8.0 0.00 0.00 0.00 32 1018.4
20260906022041 27 0 0.0 9.7 0.00 0.00 0.00 31 1018.4
20260906021553 28 0 0.0 14.5 0.00 0.00 0.00 31 1018.2
20260906021040 28 360 3.2 16.1 0.00 0.00 0.00 30 1018.1
20260906020544 27 360 1.6 16.1 0.00 0.00 0.00 31 1018.1
20260906020100 27 360 4.8 16.1 0.00 0.00 0.00 33 1018.1
20260906015541 27 360 1.6 12.9 0.00 0.00 0.00 32 1018.3
20260906015042 27 360 1.6 12.9 0.00 0.00 0.00 32 1018.4
20260906014606 27 360 1.6 8.0 0.00 0.00 0.00 32 1018.4
20260906014041 27 360 1.6 4.8 0.00 0.00 0.00 32 1018.4
20260906013541 27 0 0.0 8.0 0.00 0.00 0.00 32 1018.3
20260906013053 27 0 1.6 8.0 0.00 0.00 0.00 32 1018.2
20260906012540 27 221 1.6 9.7 0.00 0.00 0.00 32 1018.2
20260906012041 27 236 0.0 14.5 0.00 0.00 0.00 32 1018.1
20260906011552 27 360 1.6 16.1 0.00 0.00 0.00 32 1018.2
20260906011043 28 360 3.2 16.1 0.00 0.00 0.00 32 1018.3
20260906010542 28 360 4.8 16.1 0.00 0.00 0.00 31 1018.4
20260906005542 28 156 4.8 19.3 0.00 0.00 0.00 31 1018.2
20260906005043 28 181 4.8 17.7 0.00 0.00 0.00 30 1018.3
20260906004553 28 180 1.6 9.7 0.00 0.00 0.00 31 1018.4
20260906004042 28 0 1.6 11.3 0.00 0.00 0.00 31 1018.4
20260906003543 28 185 1.6 12.9 0.00 0.00 0.00 31 1018.2
20260906003049 29 182 3.2 12.9 0.00 0.00 0.00 30 1018.3
20260906002543 29 153 3.2 17.7 0.00 0.00 0.00 31 1018.3
20260906002043 29 163 6.4 17.7 0.00 0.00 0.00 30 1018.4
20260906001549 30 130 4.8 19.3 0.00 0.00 0.00 30 1018.4
20260906001043 30 208 3.2 19.3 0.00 0.00 0.00 28 1018.3
20260906000544 30 222 6.4 19.3 0.00 0.00 0.00 28 1018.3
20260906000057 31 251 1.6 9.7 0.00 0.00 0.00 28 1018.2
20260905235543 31 0 1.6 9.7 0.00 0.00 0.00 28 1018.1
20260905235043 31 346 0.0 3.2 0.00 0.00 0.00 28 1018.1
20260905234610 31 267 0.0 3.2 0.00 0.00 0.00 28 1018.2
20260905234046 31 0 0.0 3.2 0.00 0.00 0.00 29 1018.2
20260905233544 31 0 0.0 3.2 0.00 0.00 0.00 30 1018.1
20260905233051 31 0 0.0 1.6 0.00 0.00 0.00 28 1018.1
20260905232542 31 0 0.0 1.6 0.00 0.00 0.00 32 1018.0
20260905232042 31 0 0.0 4.8 0.00 0.00 0.00 27 1018.0
20260905231554 31 0 0.0 4.8 0.00 0.00 0.00 26 1017.9
20260905231042 31 0 0.0 3.2 0.00 0.00 0.00 28 1017.8
20260905230543 31 273 0.0 3.2 0.00 0.00 0.00 28 1017.8
20260905230120 31 295 0.0 3.2 0.00 0.00 0.00 26 1017.7
20260905225545 32 298 0.0 3.2 0.00 0.00 0.00 29 1017.7